Regional Weather Roundup
Issued by NWS

Home | Current Version | Previous Version | Text Only | Print | Product List | Glossary Off
Versions: 1 2 3 4 5 6 7 8 9 10 11 12 13 14 15 16 17 18 19 20 21 22 23 24 25 26 27

000
ASUS45 KTFX 271710
RWRMT
MONTANA REGIONAL WEATHER ROUNDUP
NATIONAL WEATHER SERVICE GREAT FALLS MT
1100 AM MDT THU JUL 27 2017

NOTE: "FAIR" INDICATES FEW OR NO CLOUDS BELOW 12000 FEET WITH NO
SIGNIFICANT WEATHER AND/OR OBSTRUCTIONS TO VISIBILITY.

MTZ001>007-043-271800-
WEST OF THE DIVIDE

CITY           SKY/WX    TMP DP  RH WIND       PRES   REMARKS
KALISPELL      SUNNY     77  48  35 SE5       30.04F
MISSOULA       MOSUNNY   74  52  46 SE5       30.10F
BUTTE          SUNNY     75  43  31 N5        30.22F
MULLAN PASS    MOSUNNY   68  40  35 CALM      30.24R
DEER LODGE       N/A     75  48  38 CALM      30.19S
EUREKA           N/A     82  41  23 MISG      30.00F
HAMILTON         N/A     72  54  53 CALM      30.12F
LIBBY            N/A     75  39  27 CALM      30.01F
PLAINS           N/A     77  46  33 CALM      30.04F
$$

MTZ008-052>055-271800-
SOUTHWEST MONTANA

CITY           SKY/WX    TMP DP  RH WIND       PRES   REMARKS
BOZEMAN        SUNNY     77  53  43 NW5       30.15F
DILLON         SUNNY     73  51  46 SW6       30.20F
W YELLOWSTONE  PTSUNNY   59  54  82 CALM      30.33F
ENNIS          SUNNY     75  46  35 CALM      30.25F
THREE FORKS      N/A     78  52  40 S3        30.12F
TWIN BRIDGES     N/A     72  50  45 SE1       30.17S
$$

MTZ009-010-012-014-046-048-049-054-271800-
EAST SLOPES AND CENTRAL MONTANA

CITY           SKY/WX    TMP DP  RH WIND       PRES   REMARKS
CUT BANK       MOSUNNY   85  33  15 NW8       30.05S
GREAT FALLS    CLOUDY    79  44  28 W8        30.05S
HELENA         MOSUNNY   79  49  34 VRB7      30.10F
AUGUSTA          N/A     82  32  16 W9        30.09F
CHOTEAU          N/A     81  36  19 CALM      30.08F
RAYNESFORD     PTSUNNY   78  41  25 N5        30.08R
$$

MTZ011-013-016-021-045-047-050-051-271800-
NORTH CENTRAL MONTANA

CITY           SKY/WX    TMP DP  RH WIND       PRES   REMARKS
HAVRE          SUNNY     84  46  26 S6        29.98S
LEWISTOWN      CLOUDY    81  48  31 NE7       30.08S
N BAR RANCH    PTSUNNY   75  50  41 E8        30.13F
CHINOOK          N/A     81  50  34 E7        29.98S
GEYSER         PTSUNNY   84  41  21 W10G16    30.05F
JUDITH GAP       N/A     80  45  28 S7        30.10F
$$

MTZ017>020-022>027-061-062-271800-
NORTHEAST MONTANA

CITY           SKY/WX    TMP DP  RH WIND       PRES   REMARKS
GLASGOW        CLOUDY    79  53  40 SE20      30.00S
JORDAN           N/A     80  47  31 W14G24    29.99F
SIDNEY         PTSUNNY   78  58  49 E8        30.08R
WOLF POINT     CLOUDY    82  55  39 SE14G24   30.02R
MALTA          SUNNY     77  52  41 NE5       29.97F
PLENTYWOOD       N/A     72  57  60 SE10G16   30.06F
POPLAR           N/A     79  55  44 SE21G30   30.02R
SCOBEY           N/A     77  52  41 SE13      30.03F
$$

MTZ028>42-056>058-271800-
SOUTHCENTRAL AND SOUTHEAST MONTANA

CITY           SKY/WX    TMP DP  RH WIND       PRES   REMARKS
BAKER          SUNNY     88  52  29 SE17G25   30.07S
BILLINGS       MOSUNNY   81  51  35 SW5       30.06F
LIVINGSTON     SUNNY     83  48  29 SW18G25   30.13S
MILES CITY     CLOUDY    83  55  38 S12       30.01R
BIG TIMBER     SUNNY     81  46  30 W20G28    30.12S
FORSYTH          N/A     75  55  50 SW9       30.02R
LAUREL           N/A     83  51  32 S7        30.04F
$$

REGIONAL REPORTS...DAKOTAS

CITY           SKY/WX    TMP DP  RH WIND       PRES   REMARKS
WILLISTON      LGT RAIN  66  60  81 S6        30.08F
MINOT          CLOUDY    76  57  51 S6        30.11S
DICKINSON      MOSUNNY   81  61  50 E17G23    30.12R
BEACH            N/A     77  55  47 E21       30.13S
CROSBY           N/A     75  57  53 S14G25    30.08F
TIOGA            N/A     66  66 100 S6        30.13R
WATFORD CITY   DRIZZLE   64  59  82 SE10G25   30.10R
BISMARCK       CLOUDY    76  60  57 E7        30.14R
GRAND FORKS    MOSUNNY   81  61  50 W5        30.11F
FARGO          SUNNY     81  61  50 N5        30.12S
BUFFALO SD       N/A     87  57  35 SE25G32   30.01F
RAPID CITY     PTSUNNY   66  54  65 S18G35    30.16R
$$

REGIONAL REPORTS...WYOMING/IDAHO/WASHINGTON

CITY           SKY/WX    TMP DP  RH WIND       PRES   REMARKS
GILLETTE       SUNNY     83  58  42 SE14G25   30.10F
SHERIDAN       PTSUNNY   76  58  53 N7        30.12R
BUFFALO WY     SUNNY     81  54  39 N15       30.16R
YELLOWSTONE LA   N/A     62  51  67 VRB6      30.40F
IDAHO FALLS    CLOUDY    67  57  70 VRB3      30.25R
BOISE          SUNNY     82  51  34 VRB5      30.11S
SPOKANE        MOSUNNY   76  52  43 S8        30.04F
$$

REGIONAL REPORTS...ALBERTA

CITY           SKY/WX    TMP DP  RH WIND       PRES   REMARKS
EDMONTON       PTSUNNY   70  61  73 E3        29.88F
CALGARY        MOSUNNY   82  43  24 SW3       29.95F
LETHBRIDGE     MOSUNNY   88  41  19 SW16      29.96F
MEDICINE HAT   MOSUNNY   86  54  32 SW13G20   29.93S
WATERTON GATE    N/A     81  43  26 SW13G20     N/A
CARDSTON         N/A     84  39  20 W7          N/A
$$

REGIONAL REPORTS...SASKATCHEWAN

CITY           SKY/WX    TMP DP  RH WIND       PRES   REMARKS
SWIFT CURRENT  SUNNY     88  46  23 SE17G24   29.99F
REGINA         MOSUNNY   81  57  44 SE15      30.04F
SASKATOON      SUNNY     81  59  47 SE8       30.00F
CYPRESS HILLS    N/A     75  46  35 SE8         N/A
VAL MARIE        N/A     84  48  28 S15G21      N/A
ROCKGLEN         N/A     73  55  53 SE14G20     N/A
$$




USA.gov is the U.S. government's official web portal to all federal, state and local government web resources and services.